Location: El Bakhil
(32.7726°N, 5.5387°W)
Time: 09:12:09
(UTC+00:00)

N. Korean satellite - Pass Details

Date: 16 May 2021
Orbit: 450 x 499 km, 97.2° (Epoch: 21 June)

Event Time Altitude Azimuth Distance (km) Brightness Sun altitude
Rises 04:52:51 0° 31° (NNE) 2,461 11.3 -6.5°
Reaches altitude 10° 04:55:24 10° 52° (NE) 1,583 10.9 -6.0°
Maximum altitude 04:57:44 17° 96° (E) 1,200 9.5 -5.6°
Drops below altitude 10° 05:00:03 10° 139° (SE) 1,576 9.4 -5.1°
Sets 05:02:34 0° 160° (SSE) 2,447 10.1 -4.6°
